Location: Hannover
(52.3723°N, 9.7339°E)
Time: 16:07:29
(UTC+02:00)

ISS - Pass Details

Date: 23 March 2019
Orbit: 408 x 410 km, 51.6° (Epoch: 25 April)

Event Time Altitude Azimuth Distance (km) Brightness Sun altitude
Rises 20:17:00 0° 227° (SW) 2,328 0.4 -15.3°
Reaches altitude 10° 20:19:12 10° 216° (SW) 1,470 -0.8 -15.6°
Enters shadow 20:21:58 31° 160° (SSE) 751 -2.9 -16.0°
